Location: Cuiry
(49.3858°N, 3.7708°E)
Time: 23:39:40
(UTC+00:00)

Cosmos 1331 Rocket - Pass Details

Date: 12 January 2026
Orbit: 745 x 773 km, 74.0° (Epoch: 17 February)

Event Time Altitude Azimuth Distance (km) Brightness Sun altitude
Rises 18:48:45 0° 210° (SSW) 3,176 7.7 -25.1°
Reaches altitude 10° 18:51:06 10° 213° (SSW) 2,256 6.9 -25.5°
Maximum altitude 18:56:11 67° 296° (WNW) 812 4.2 -26.3°
Enters shadow 18:57:29 48° 357° (N) 977 4.4 -26.5°
